Temp
78 77 77 77 77 77 77 77 77 77 77 77 77 77 77 77 77 76 76 75 75 75 74 73 72 73 72 72 71 71 71 70 70 69 68 67 68 67 67 66 67 67 66 66 66 67 69 69 68 67 66 67 66 66 65 66 67 69 67 66 67 67 67
77 77 77 77 77 77 77 77 77 77 77 77 77 77 78 77 77 76 76 76 76 76 74 73 73 73 73 73 72 71 70 70 70 71 69 69 70 67 68 67 67 67 66 67 67 68 68 68 68 66 67 68 68 67 66 66 66 66 66 66 65 65 65
76 76 77 76 77 76 76 77 77 78 78 78 78 77 77 77 77 77 77 76 76 76 75 73 74 74 74 73 71 70 71 69 69 69 68 68 68 68 68 68 67 67 67 66 67 68 68 68 66 66 67 67 68 67 67 66 67 67 66 66 66 66 65
76 76 76 77 77 77 77 77 77 78 79 79 79 78 78 78 78 78 78 77 76 76 74 74 74 74 74 73 72 70 69 69 70 70 69 69 69 68 68 67 67 67 67 66 68 69 69 68 66 66 70 67 67 66 66 67 66 66 66 65 66 66 66
76 77 77 76 76 76 76 76 77 78 79 80 80 79 79 79 79 79 78 78 78 77 77 76 76 76 74 73 72 71 70 69 69 69 69 69 69 68 68 67 67 67 68 68 66 68 67 67 66 66 66 66 66 66 66 66 66 66 65 65 65 65 65
75 75 75 76 76 76 76 77 78 79 79 79 79 79 79 80 80 79 79 78 78 78 77 76 75 75 74 74 73 71 70 69 70 69 69 69 68 68 68 68 67 68 67 67 68 67 67 66 67 66 66 66 66 66 65 65 65 65 66 65 65 65 66
76 76 76 76 76 76 77 77 78 79 80 80 80 80 80 80 80 80 79 78 78 77 77 76 76 75 74 73 72 72 70 69 69 69 69 69 69 69 68 68 69 68 69 67 67 67 66 66 67 66 67 66 67 66 65 65 65 65 65 64 65 65 64
77 76 76 77 77 78 77 77 78 79 80 80 80 80 80 80 80 79 79 79 78 78 78 77 76 75 74 73 73 73 71 71 70 69 69 69 68 68 67 67 68 69 67 67 68 67 68 67 67 67 66 66 65 65 65 65 65 65 64 65 64 64 66
77 77 77 78 78 78 78 77 78 79 78 79 79 79 79 79 80 79 79 79 79 78 78 79 77 76 74 73 72 72 72 71 70 69 69 69 69 69 69 69 68 68 68 68 67 67 67 68 67 67 66 65 65 64 64 65 65 65 64 64 64 64 64
75 74 76 78 79 79 78 78 78 77 77 77 78 78 78 79 80 80 80 79 79 78 78 78 78 76 74 73 73 73 72 71 70 70 70 70 70 70 70 70 69 69 68 68 67 67 67 67 67 67 66 66 65 65 65 65 65 65 64 64 64 64 64
74 74 75 75 76 77 77 76 76 76 77 77 77 78 78 78 79 79 79 79 79 79 79 79 78 76 74 74 73 73 72 71 71 70 69 71 71 70 71 71 71 70 69 68 67 67 67 67 67 66 65 66 66 66 65 66 65 64 64 64 64 64 64
72 73 73 75 75 75 75 75 76 76 76 77 78 78 78 78 79 79 79 79 80 79 79 78 78 76 75 74 73 72 71 71 71 71 70 71 71 71 72 72 71 70 69 68 68 67 67 67 67 68 66 66 66 66 66 65 64 64 65 64 63 63 64
72 73 74 74 75 76 75 74 74 75 76 77 78 78 78 78 78 79 78 78 79 79 79 78 77 75 74 74 74 72 71 71 71 70 72 72 71 71 71 71 72 71 70 69 69 69 68 67 67 67 67 66 65 65 65 65 65 64 64 64 63 63 63
74 72 73 74 75 74 74 74 74 75 76 76 77 78 78 78 78 78 78 78 78 79 78 78 76 75 74 74 74 72 72 72 71 72 72 73 72 71 71 71 71 70 70 70 69 69 69 68 67 67 66 66 65 66 66 65 65 64 64 63 64 64 63
70 72 73 73 74 73 73 73 73 74 75 76 77 77 77 77 77 77 77 78 77 78 78 78 76 75 74 74 73 72 72 71 72 72 72 72 71 71 71 71 70 71 70 70 69 70 70 70 68 66 65 65 65 66 66 66 66 66 65 64 64 63 63
71 72 72 73 73 73 73 74 74 74 75 75 76 76 76 76 76 77 77 77 78 77 78 77 75 74 74 73 73 73 72 72 71 71 72 71 71 71 71 71 70 70 69 69 69 69 69 68 68 67 67 66 65 65 66 66 67 67 66 67 66 64 64
71 72 72 72 72 72 72 73 74 74 73 74 75 76 76 76 77 77 77 78 78 77 78 77 75 74 74 73 73 72 72 71 71 70 70 71 71 71 70 70 70 69 69 69 68 68 68 68 67 67 67 67 67 66 66 67 68 66 64 65 67 65 62
70 70 70 71 70 70 70 70 71 72 73 75 75 75 76 76 76 76 76 77 77 78 77 77 76 75 74 73 72 71 71 71 71 70 70 69 69 70 70 70 69 69 68 68 67 68 68 68 68 67 67 67 67 67 67 67 66 64 64 64 64 66 64
70 69 69 69 69 69 70 72 73 73 74 75 76 76 77 77 76 76 76 76 77 77 76 76 75 74 73 72 71 71 70 70 69 68 67 68 69 70 70 69 69 69 68 68 68 68 67 67 67 67 67 67 66 67 66 65 66 63 62 63 63 64 64
69 69 68 68 69 70 70 70 70 72 73 74 76 77 78 77 77 77 77 78 78 77 76 75 75 73 72 70 69 68 68 68 67 67 68 68 69 70 70 70 69 70 70 70 68 68 68 68 67 67 66 67 65 64 65 65 64 63 61 61 61 62 64
66 67 68 69 69 70 70 71 72 72 71 72 75 75 75 76 77 77 77 76 75 74 73 73 72 70 70 69 68 68 69 68 68 67 68 68 69 70 70 70 70 70 70 70 69 68 68 68 67 67 66 65 65 65 65 67 64 61 60 59 59 61 63
69 70 69 69 69 69 69 70 72 73 73 75 74 74 76 77 78 78 76 73 74 72 72 71 70 69 69 68 68 69 69 69 68 67 67 67 68 68 68 69 70 70 70 70 69 69 68 67 68 66 65 64 64 64 65 67 62 60 59 58 59 60 62
74 73 74 72 72 72 70 71 72 73 72 71 73 74 76 77 77 75 73 73 72 71 71 70 68 68 68 68 68 69 69 69 68 67 68 67 67 68 68 68 70 70 70 69 69 68 67 67 66 65 64 64 65 65 65 66 64 59 57 57 58 59 60
74 73 71 70 68 67 67 67 69 71 72 71 71 73 72 74 75 73 71 70 69 69 68 68 67 68 68 68 69 68 68 68 68 68 68 67 67 68 69 71 72 72 71 69 69 67 67 66 64 64 64 64 64 64 64 66 63 59 56 56 57 59 59
73 72 70 71 71 68 68 69 71 71 71 71 71 71 72 73 72 71 69 68 68 68 67 66 66 67 68 67 68 67 67 67 68 68 68 67 68 70 70 71 72 72 69 69 68 67 64 65 63 62 62 64 65 66 67 66 63 58 55 55 55 58 57
68 68 68 68 69 68 68 69 71 68 69 70 71 70 71 71 71 70 69 68 68 68 67 66 67 68 67 67 67 68 67 67 67 67 67 68 70 71 71 71 68 65 66 66 65 63 63 64 62 61 61 62 63 65 65 64 62 61 54 53 53 55 58
68 68 69 69 68 70 69 69 71 71 71 72 71 70 71 71 69 69 69 68 67 68 68 67 67 67 67 67 67 67 67 67 68 67 68 69 71 72 69 64 65 66 65 64 63 63 62 62 62 61 61 61 63 63 61 62 60 56 52 51 51 53 55
69 69 69 69 69 67 66 67 67 67 68 67 68 70 70 70 69 69 67 66 66 66 67 67 66 67 67 67 67 67 67 67 67 68 70 71 70 68 67 66 67 67 67 65 64 63 62 61 60 60 61 62 61 59 56 60 61 55 52 50 49 50 53
68 66 67 67 66 67 67 64 64 66 67 67 67 68 68 68 68 67 67 65 65 66 67 66 66 67 67 66 66 67 67 67 68 69 70 69 68 67 65 65 66 64 64 62 62 62 62 61 61 61 61 60 56 55 56 56 58 57 56 50 48 49 50
64 65 66 69 68 66 66 63 64 64 64 66 65 66 66 67 66 66 64 62 65 67 68 68 67 67 66 66 66 66 66 66 67 66 66 66 66 65 64 63 63 63 62 62 62 62 61 60 59 58 58 57 55 56 56 57 57 56 55 53 48 46 46
63 64 65 66 66 66 65 65 64 65 65 66 66 66 66 67 66 65 63 64 66 66 66 66 66 66 66 65 65 66 66 66 64 64 64 65 65 64 64 63 65 64 63 64 64 61 60 58 58 58 57 56 57 55 55 57 56 55 55 54 51 48 47
62 62 63 65 65 66 65 65 64 64 64 64 65 65 66 66 66 64 63 65 67 67 66 66 65 65 65 65 65 65 65 64 64 65 65 65 66 66 66 66 65 64 63 62 61 60 59 58 57 56 56 56 54 54 54 56 56 54 53 57 56 54 52
61 61 61 62 64 67 65 66 65 65 65 63 64 66 67 66 66 65 65 65 66 66 66 66 65 64 63 63 63 64 64 64 64 64 65 65 65 65 64 65 63 64 64 62 61 59 59 59 59 57 56 55 54 54 55 57 55 53 50 49 48 50 51
62 62 62 62 64 64 64 64 64 64 64 63 64 66 66 66 66 67 68 68 68 67 66 65 65 64 64 64 62 63 64 65 68 63 59 58 60 62 61 61 62 64 62 61 61 60 59 59 58 57 57 55 54 54 55 56 55 52 50 48 49 48 45
63 62 61 63 63 63 63 63 63 63 63 63 64 65 65 65 66 67 67 68 68 67 67 66 66 64 63 63 64 65 65 62 61 59 57 56 52 50 49 51 54 56 53 50 51 57 62 60 58 58 57 57 55 54 54 55 54 54 51 51 49 48 48
64 64 63 62 63 63 64 64 63 64 64 64 64 65 65 65 66 67 68 68 68 67 65 65 63 63 62 62 61 62 62 62 61 58 57 55 53 52 51 48 42 45 53 52 52 47 45 51 55 56 55 54 50 53 54 54 54 49 44 40 40 40 41
64 63 62 63 62 62 63 63 65 65 64 64 64 64 64 64 64 64 66 65 65 67 66 63 61 61 61 62 61 60 61 61 60 58 57 56 55 54 52 50 49 41 41 45 46 43 41 42 46 49 51 55 50 48 47 48 43 41 40 39 39 39 39
63 62 63 63 63 63 63 63 64 64 63 64 64 64 64 64 64 64 64 64 64 65 64 63 61 60 59 60 61 63 63 61 61 59 57 55 55 55 54 53 51 50 44 41 41 41 40 40 42 43 45 48 50 48 47 44 41 40 40 40 40 39 39
MSLP
1007.57 1008.17 1008.45 1008.53 1008.85 1009.01 1009.21 1009.41 1009.53 1009.81 1009.93 1010.09 1010.13 1010.17 1010.33 1010.53 1010.73 1011.01 1011.33 1011.49 1011.77 1011.97 1012.05 1012.21 1012.45 1012.69 1012.89 1013.05 1013.13 1013.33 1013.53 1013.81 1014.13 1014.45 1014.73 1014.89 1014.93 1015.17 1015.49 1015.65 1015.77 1015.97 1016.13 1016.29 1016.41 1016.45 1016.45 1016.49 1016.65 1016.65 1016.73 1016.73 1016.85 1016.93 1017.01 1017.01 1017.05 1017.01 1016.97 1016.97 1017.01 1017.09 1017.13
1007.69 1007.77 1008.01 1008.13 1008.37 1008.57 1008.73 1008.85 1009.13 1009.41 1009.65 1009.65 1009.65 1009.73 1009.89 1010.17 1010.33 1010.65 1010.73 1010.85 1011.05 1011.25 1011.53 1011.81 1012.05 1012.29 1012.41 1012.65 1012.81 1013.09 1013.37 1013.61 1013.81 1014.05 1014.37 1014.61 1014.73 1014.85 1014.97 1015.29 1015.45 1015.73 1015.85 1015.93 1016.09 1016.17 1016.25 1016.37 1016.41 1016.53 1016.57 1016.61 1016.77 1016.81 1016.89 1016.93 1016.93 1016.97 1016.97 1016.93 1017.01 1017.05 1017.05
1007.21 1007.25 1007.45 1007.73 1007.97 1008.17 1008.41 1008.65 1008.89 1008.97 1009.05 1009.21 1009.45 1009.69 1009.73 1009.65 1009.61 1009.69 1009.97 1010.41 1010.77 1010.89 1011.13 1011.45 1011.65 1011.97 1012.17 1012.37 1012.73 1012.97 1013.05 1013.37 1013.69 1013.89 1014.21 1014.41 1014.65 1014.81 1015.01 1015.13 1015.25 1015.41 1015.57 1015.73 1015.85 1016.05 1016.09 1016.21 1016.29 1016.37 1016.41 1016.61 1016.69 1016.81 1016.81 1016.85 1016.85 1016.89 1016.89 1016.89 1016.97 1017.01 1017.01
1006.65 1006.69 1006.73 1006.81 1007.01 1007.25 1007.57 1007.89 1008.09 1008.25 1008.37 1008.53 1008.77 1008.85 1008.93 1009.01 1008.93 1009.05 1009.33 1009.57 1010.01 1010.45 1011.01 1011.37 1011.65 1011.85 1012.05 1012.37 1012.69 1012.97 1013.17 1013.25 1013.33 1013.69 1013.93 1014.17 1014.45 1014.77 1015.01 1015.17 1015.21 1015.25 1015.49 1015.65 1015.69 1015.77 1015.93 1016.05 1016.17 1016.25 1016.29 1016.53 1016.65 1016.73 1016.81 1016.81 1016.81 1016.81 1016.81 1016.85 1016.93 1016.89 1016.85
1006.05 1006.05 1006.57 1007.05 1007.33 1007.61 1007.81 1007.97 1008.09 1008.09 1008.09 1007.93 1008.05 1008.09 1008.17 1008.25 1008.53 1008.89 1009.17 1009.33 1009.61 1010.01 1010.01 1010.25 1010.41 1010.89 1011.53 1012.05 1012.49 1012.81 1013.05 1013.21 1013.37 1013.53 1013.77 1014.05 1014.33 1014.65 1014.89 1015.09 1015.13 1015.17 1015.13 1015.29 1015.49 1015.69 1015.85 1015.93 1016.01 1016.13 1016.25 1016.37 1016.53 1016.65 1016.73 1016.69 1016.73 1016.73 1016.77 1016.81 1016.85 1016.77 1016.69
1005.93 1006.21 1006.41 1006.61 1006.89 1007.05 1007.05 1007.17 1007.25 1007.37 1007.53 1007.81 1007.89 1008.05 1008.13 1008.33 1008.65 1008.89 1008.85 1009.13 1009.45 1009.73 1010.05 1010.45 1010.73 1010.93 1011.29 1011.45 1011.69 1012.25 1012.77 1013.09 1013.17 1013.37 1013.69 1014.05 1014.41 1014.73 1014.85 1014.93 1015.05 1015.01 1015.05 1015.05 1015.21 1015.41 1015.57 1015.73 1015.81 1015.93 1016.05 1016.13 1016.25 1016.45 1016.53 1016.61 1016.61 1016.61 1016.61 1016.65 1016.69 1016.57 1016.61
1005.25 1005.49 1005.81 1006.01 1006.17 1006.37 1006.57 1006.73 1006.81 1006.85 1006.81 1006.81 1006.93 1007.13 1007.49 1007.93 1008.21 1008.17 1008.45 1008.97 1009.21 1009.69 1009.93 1010.21 1010.37 1010.77 1010.93 1011.05 1011.53 1011.89 1012.17 1012.69 1013.09 1013.41 1013.57 1013.93 1014.21 1014.53 1014.81 1014.93 1014.93 1014.89 1014.73 1014.73 1015.01 1015.17 1015.45 1015.57 1015.65 1015.69 1015.73 1015.81 1015.97 1016.13 1016.29 1016.41 1016.41 1016.37 1016.45 1016.53 1016.53 1016.45 1016.41
1004.45 1005.05 1005.05 1005.17 1005.37 1005.57 1005.97 1006.17 1006.33 1006.33 1006.37 1006.65 1007.09 1007.45 1007.81 1007.81 1008.05 1008.41 1008.65 1008.57 1008.81 1009.21 1009.61 1009.85 1010.17 1010.33 1010.69 1011.09 1011.21 1011.45 1012.01 1012.45 1012.65 1013.09 1013.45 1013.77 1014.09 1014.37 1014.61 1014.73 1014.77 1014.65 1014.73 1014.73 1014.65 1014.93 1015.17 1015.33 1015.37 1015.41 1015.49 1015.53 1015.65 1015.85 1015.97 1016.09 1016.17 1016.17 1016.29 1016.37 1016.37 1016.25 1016.17
1003.93 1003.97 1004.29 1004.65 1004.89 1005.13 1005.49 1005.77 1005.77 1005.85 1006.17 1006.45 1006.69 1006.93 1007.21 1007.49 1007.69 1007.77 1007.85 1008.09 1008.41 1008.77 1008.89 1008.97 1009.37 1009.85 1010.41 1010.85 1011.17 1011.37 1011.69 1012.17 1012.65 1012.93 1013.25 1013.49 1013.69 1013.85 1014.09 1014.33 1014.45 1014.49 1014.69 1014.69 1014.61 1014.73 1014.89 1015.01 1015.17 1015.21 1015.25 1015.29 1015.33 1015.49 1015.69 1015.81 1015.93 1015.93 1016.05 1016.05 1016.05 1016.05 1015.93
1004.01 1004.33 1004.29 1004.17 1004.21 1004.57 1004.89 1005.13 1005.45 1005.97 1006.41 1006.57 1006.61 1006.73 1006.89 1006.85 1006.93 1007.13 1007.45 1007.77 1008.05 1008.37 1008.45 1008.81 1009.21 1009.65 1010.13 1010.61 1010.97 1011.17 1011.69 1011.89 1012.33 1012.69 1012.97 1013.17 1013.17 1013.41 1013.77 1013.97 1014.13 1014.33 1014.53 1014.49 1014.49 1014.57 1014.65 1014.77 1014.93 1015.05 1015.09 1015.09 1015.09 1015.21 1015.37 1015.53 1015.65 1015.69 1015.73 1015.73 1015.73 1015.73 1015.61
1003.73 1003.89 1004.13 1004.37 1004.45 1004.45 1004.69 1005.25 1005.73 1005.85 1005.77 1005.89 1005.93 1006.05 1006.21 1006.37 1006.61 1006.85 1007.05 1007.29 1007.61 1007.69 1007.89 1008.37 1008.81 1009.41 1009.81 1010.17 1010.65 1010.93 1011.21 1011.61 1011.85 1012.29 1012.53 1012.57 1012.73 1013.13 1013.33 1013.49 1013.69 1014.01 1014.25 1014.37 1014.37 1014.25 1014.37 1014.61 1014.77 1014.93 1014.97 1014.93 1014.89 1014.93 1015.13 1015.25 1015.33 1015.41 1015.41 1015.33 1015.25 1015.21 1015.17
1003.77 1004.01 1004.17 1004.09 1004.09 1004.37 1004.85 1004.85 1004.85 1005.09 1005.21 1005.37 1005.45 1005.49 1005.61 1005.81 1005.97 1006.17 1006.37 1006.61 1006.65 1007.21 1007.73 1008.05 1008.37 1008.89 1009.37 1009.73 1010.17 1010.49 1010.81 1011.13 1011.53 1011.73 1011.85 1012.01 1012.37 1012.53 1012.77 1012.93 1013.21 1013.53 1013.81 1013.93 1014.01 1014.05 1014.13 1014.33 1014.57 1014.69 1014.73 1014.65 1014.61 1014.65 1014.77 1014.93 1015.09 1015.09 1015.01 1014.93 1014.93 1014.97 1014.93
1003.53 1003.73 1003.73 1003.85 1003.85 1003.77 1004.01 1004.61 1004.85 1004.73 1004.77 1004.73 1004.77 1004.97 1005.09 1005.25 1005.45 1005.69 1006.01 1006.29 1006.49 1006.77 1007.17 1007.57 1008.05 1008.49 1008.97 1009.21 1009.49 1010.01 1010.41 1010.77 1011.01 1011.09 1011.21 1011.45 1011.77 1012.13 1012.37 1012.53 1012.65 1013.01 1013.33 1013.49 1013.61 1013.73 1013.93 1014.09 1014.29 1014.37 1014.45 1014.37 1014.37 1014.41 1014.49 1014.61 1014.73 1014.81 1014.81 1014.73 1014.69 1014.65 1014.65
1003.33 1003.61 1003.65 1003.61 1003.73 1003.93 1004.21 1004.17 1004.17 1004.37 1004.45 1004.57 1004.65 1004.69 1004.97 1005.09 1005.25 1005.41 1005.61 1005.89 1006.05 1006.33 1006.81 1007.21 1007.65 1008.09 1008.45 1008.73 1009.13 1009.57 1009.89 1010.01 1010.13 1010.41 1010.65 1010.85 1011.21 1011.73 1011.89 1011.97 1012.21 1012.49 1012.73 1013.01 1013.29 1013.41 1013.53 1013.73 1013.97 1014.05 1014.13 1014.09 1014.05 1014.01 1014.13 1014.37 1014.57 1014.65 1014.61 1014.49 1014.37 1014.37 1014.37
1003.69 1003.65 1003.49 1003.57 1003.45 1003.61 1003.93 1004.17 1004.17 1004.17 1004.21 1004.33 1004.41 1004.77 1004.85 1005.05 1005.25 1005.45 1005.73 1005.85 1006.13 1006.29 1006.45 1006.53 1007.09 1007.57 1007.89 1008.29 1008.69 1008.97 1009.09 1009.29 1009.65 1009.97 1010.21 1010.45 1010.89 1011.25 1011.41 1011.49 1011.73 1012.01 1012.33 1012.65 1012.89 1013.01 1013.09 1013.21 1013.53 1013.81 1013.93 1013.85 1013.73 1013.77 1013.93 1014.25 1014.37 1014.33 1014.25 1014.17 1014.09 1014.09 1014.09
1003.33 1003.33 1003.29 1003.25 1003.21 1003.41 1003.53 1003.61 1003.77 1003.85 1003.97 1004.17 1004.37 1004.45 1004.69 1004.97 1005.17 1005.33 1005.49 1005.61 1005.69 1005.97 1006.05 1006.57 1006.97 1007.17 1007.45 1007.85 1008.13 1008.33 1008.57 1008.89 1009.29 1009.57 1009.81 1010.21 1010.53 1010.89 1011.17 1011.33 1011.53 1011.89 1012.25 1012.49 1012.65 1012.81 1012.85 1013.05 1013.29 1013.49 1013.53 1013.49 1013.53 1013.65 1013.85 1013.97 1013.97 1013.85 1013.73 1013.69 1013.73 1013.77 1013.85
1002.81 1002.85 1002.85 1002.93 1003.09 1003.25 1003.29 1003.45 1003.57 1003.85 1004.17 1004.21 1004.25 1004.33 1004.41 1004.45 1004.49 1004.69 1005.01 1005.21 1005.45 1005.61 1005.65 1005.93 1006.37 1006.77 1007.09 1007.41 1007.69 1008.05 1008.29 1008.61 1008.85 1008.97 1009.25 1009.45 1010.01 1010.73 1011.01 1011.17 1011.45 1011.73 1012.05 1012.33 1012.53 1012.69 1012.77 1012.93 1013.17 1013.29 1013.25 1013.21 1013.21 1013.37 1013.53 1013.57 1013.53 1013.41 1013.45 1013.45 1013.41 1013.49 1013.65
1002.49 1002.65 1002.73 1002.77 1002.93 1003.17 1003.49 1003.61 1003.73 1003.85 1003.89 1003.89 1003.97 1004.13 1004.33 1004.41 1004.41 1004.65 1004.85 1004.93 1005.17 1005.25 1005.61 1006.01 1006.09 1006.37 1006.77 1007.21 1007.57 1007.69 1007.73 1007.73 1008.17 1008.69 1009.45 1010.25 1010.77 1010.97 1010.77 1010.93 1011.25 1011.61 1011.89 1012.17 1012.45 1012.53 1012.65 1012.89 1012.93 1012.93 1012.89 1012.89 1012.93 1013.05 1013.09 1013.17 1013.05 1013.09 1013.17 1013.21 1013.21 1013.17 1013.25
1002.05 1002.21 1002.29 1002.57 1002.89 1003.01 1003.13 1003.21 1003.21 1003.33 1003.49 1003.65 1003.73 1003.85 1003.77 1003.81 1004.33 1004.61 1004.49 1004.89 1005.05 1005.45 1005.93 1005.85 1005.93 1006.21 1006.81 1007.29 1007.61 1008.01 1008.57 1009.21 1009.89 1010.53 1011.01 1011.49 1011.77 1011.73 1011.17 1010.93 1011.13 1011.45 1011.77 1011.97 1011.97 1012.25 1012.61 1012.65 1012.73 1012.77 1012.65 1012.69 1012.77 1012.81 1012.89 1013.01 1012.93 1013.05 1013.05 1012.97 1012.89 1012.89 1012.93
1001.73 1001.85 1002.13 1002.45 1002.53 1002.73 1002.73 1003.05 1003.21 1003.21 1003.17 1003.17 1003.09 1003.13 1003.25 1003.61 1004.05 1004.17 1004.49 1004.69 1004.53 1004.97 1005.21 1005.65 1006.17 1006.73 1007.29 1007.57 1008.05 1008.65 1009.13 1010.05 1010.53 1010.49 1010.29 1010.65 1011.01 1011.13 1011.09 1010.97 1010.97 1011.01 1011.21 1011.45 1011.77 1012.09 1012.29 1012.41 1012.53 1012.45 1012.45 1012.41 1012.53 1012.69 1012.65 1012.61 1012.45 1012.49 1012.65 1012.85 1012.77 1012.57 1012.65
1001.85 1002.01 1002.09 1002.01 1002.37 1002.45 1002.53 1002.61 1002.73 1002.93 1003.17 1003.13 1002.97 1003.05 1003.33 1003.53 1003.57 1003.89 1004.25 1004.45 1004.89 1005.05 1005.37 1005.73 1006.41 1006.93 1007.21 1007.53 1007.73 1007.65 1007.61 1007.97 1008.69 1009.25 1009.89 1010.25 1010.81 1011.21 1011.29 1010.97 1010.81 1010.93 1011.01 1011.21 1011.41 1011.73 1011.93 1012.05 1012.21 1012.09 1012.13 1012.25 1012.29 1012.37 1012.37 1012.21 1012.13 1012.25 1012.33 1012.45 1012.61 1012.57 1012.61
1001.45 1001.61 1001.61 1001.85 1001.45 1001.89 1002.29 1002.49 1002.49 1002.57 1002.49 1002.13 1002.61 1002.85 1002.93 1003.05 1003.13 1003.81 1004.21 1004.21 1004.53 1004.85 1005.29 1005.85 1006.37 1006.77 1006.97 1007.37 1007.53 1007.53 1007.33 1007.17 1007.77 1008.57 1009.69 1010.33 1010.93 1011.29 1011.37 1011.09 1010.89 1010.77 1010.65 1010.85 1011.01 1011.21 1011.41 1011.57 1011.65 1011.85 1012.01 1012.05 1012.17 1012.33 1012.33 1012.05 1011.97 1012.05 1012.13 1012.25 1012.33 1012.49 1012.77
1000.57 1000.53 999.97 999.97 1000.21 1000.05 1000.85 1001.49 1001.89 1001.93 1002.13 1002.41 1002.41 1002.61 1002.65 1002.77 1003.17 1003.53 1003.81 1004.13 1004.37 1004.69 1005.17 1005.69 1006.21 1006.45 1006.57 1006.81 1006.89 1007.13 1007.53 1008.17 1008.81 1009.45 1009.81 1010.45 1011.09 1011.17 1011.13 1011.09 1010.81 1010.45 1010.29 1010.65 1010.85 1011.13 1011.33 1011.37 1011.49 1011.57 1011.73 1011.81 1011.93 1012.17 1012.37 1012.01 1011.69 1011.85 1011.97 1012.09 1012.17 1012.49 1012.65
1000.29 1000.17 1000.17 1000.33 1000.89 1001.17 1001.49 1001.57 1001.69 1001.77 1001.85 1002.13 1002.37 1002.45 1002.65 1002.81 1003.05 1003.49 1003.85 1004.13 1004.41 1004.85 1005.41 1005.77 1006.09 1006.17 1006.33 1006.49 1006.69 1007.41 1007.89 1008.09 1008.13 1008.69 1009.41 1010.29 1010.81 1010.65 1010.65 1010.25 1009.93 1009.93 1009.97 1010.37 1010.57 1010.85 1010.89 1011.05 1011.29 1011.37 1011.49 1011.81 1012.29 1012.65 1012.85 1012.25 1011.77 1011.65 1011.65 1011.81 1012.01 1012.29 1012.41
1000.81 1000.93 1000.77 1000.33 1000.05 1000.33 1001.21 1001.49 1001.37 1001.41 1001.65 1001.93 1002.37 1002.37 1002.33 1002.61 1002.93 1003.45 1003.93 1004.05 1004.57 1005.09 1005.65 1005.89 1005.97 1005.89 1005.89 1006.45 1007.17 1007.81 1007.73 1007.65 1008.05 1008.49 1009.09 1009.93 1010.29 1010.09 1009.93 1009.65 1009.53 1009.53 1009.89 1010.05 1010.21 1010.45 1010.69 1010.97 1011.29 1011.37 1011.21 1011.41 1011.57 1011.61 1011.89 1011.85 1011.53 1011.45 1011.41 1011.65 1012.05 1012.33 1012.33
1001.25 1001.61 1001.61 1001.29 1001.25 1000.97 1001.33 1001.69 1001.61 1001.85 1001.97 1002.05 1002.01 1001.97 1002.17 1002.41 1002.81 1003.17 1003.49 1003.77 1004.21 1004.85 1005.13 1005.01 1004.77 1005.13 1006.29 1006.81 1006.77 1006.85 1007.33 1007.69 1008.29 1008.93 1009.57 1009.89 1009.65 1009.45 1009.21 1009.45 1010.21 1010.77 1011.01 1010.53 1010.33 1010.49 1010.65 1010.93 1011.33 1011.61 1011.97 1012.17 1011.97 1011.69 1011.49 1011.69 1011.73 1011.61 1011.61 1011.77 1012.01 1012.21 1012.25
1001.29 1001.33 1001.41 1001.61 1001.61 1001.53 1001.37 1001.69 1001.25 1001.09 1001.33 1001.65 1001.77 1001.93 1002.05 1002.33 1002.85 1003.21 1003.29 1003.61 1004.09 1004.33 1004.53 1004.73 1005.13 1005.57 1005.85 1006.33 1006.77 1007.25 1007.73 1007.89 1007.85 1008.57 1008.85 1008.85 1008.69 1009.01 1009.49 1009.77 1010.17 1010.49 1010.89 1010.85 1010.69 1010.57 1010.81 1011.25 1011.41 1011.41 1011.49 1011.73 1012.21 1011.89 1011.61 1011.73 1011.77 1011.77 1011.85 1011.93 1012.01 1012.09 1012.05
1001.13 1001.45 1001.73 1001.57 1001.45 1001.45 1001.73 1001.97 1002.21 1002.33 1002.17 1002.05 1002.01 1001.97 1002.05 1002.29 1002.73 1002.97 1003.33 1004.17 1005.25 1005.57 1005.53 1005.97 1006.45 1006.85 1007.21 1007.29 1007.49 1007.77 1007.85 1008.13 1008.57 1008.53 1008.13 1008.13 1008.77 1009.29 1009.37 1009.45 1009.69 1009.93 1010.25 1010.49 1010.65 1010.73 1010.73 1010.65 1010.73 1010.77 1010.89 1011.29 1011.85 1011.89 1011.81 1011.77 1011.61 1011.65 1011.81 1011.81 1011.89 1011.89 1012.01
1001.49 1001.65 1001.61 1001.49 1001.41 1001.57 1001.77 1002.13 1002.49 1002.69 1003.13 1003.21 1003.13 1003.05 1003.05 1003.17 1003.37 1003.77 1004.45 1005.09 1005.33 1005.13 1005.25 1005.73 1006.57 1007.57 1008.01 1008.09 1008.13 1008.01 1008.01 1008.17 1008.41 1008.45 1008.65 1008.65 1008.73 1009.09 1009.57 1009.85 1010.09 1010.45 1010.61 1010.97 1011.53 1011.69 1011.57 1010.89 1010.53 1010.49 1010.69 1011.25 1011.53 1011.57 1011.53 1011.49 1011.49 1011.53 1011.57 1011.81 1011.85 1011.93 1012.05
1001.89 1001.61 1001.93 1001.97 1002.09 1002.13 1002.37 1002.49 1003.09 1003.25 1003.21 1003.33 1003.33 1003.25 1003.17 1003.29 1003.85 1004.41 1005.09 1005.73 1005.49 1005.25 1005.65 1006.05 1006.29 1006.93 1007.93 1008.33 1008.33 1008.41 1008.89 1009.09 1009.33 1009.25 1008.77 1008.53 1008.73 1009.05 1009.45 1009.73 1010.01 1010.01 1009.93 1009.89 1010.13 1010.37 1010.37 1010.41 1010.45 1010.45 1010.61 1010.85 1011.17 1011.29 1011.33 1011.53 1011.57 1011.77 1011.69 1011.69 1011.81 1012.01 1012.21
1002.77 1002.61 1002.25 1002.05 1002.41 1002.65 1002.73 1002.81 1003.13 1003.37 1003.53 1003.41 1003.37 1003.37 1003.41 1003.65 1004.17 1004.53 1004.93 1005.29 1005.21 1005.29 1005.49 1005.97 1006.45 1006.93 1007.57 1008.05 1008.21 1008.41 1008.89 1009.05 1009.13 1009.25 1008.81 1008.33 1008.41 1009.01 1009.69 1009.73 1009.61 1009.73 1009.61 1009.61 1009.73 1009.69 1009.65 1010.01 1010.21 1010.25 1010.49 1010.81 1010.81 1010.93 1011.33 1011.65 1011.81 1011.81 1011.89 1011.85 1012.01 1012.25 1012.45
1003.45 1003.53 1003.45 1003.09 1002.89 1002.85 1002.73 1002.93 1003.17 1003.41 1003.69 1003.73 1003.53 1003.53 1003.61 1003.73 1003.85 1004.49 1005.09 1004.93 1004.97 1005.25 1005.65 1006.01 1006.45 1006.89 1007.29 1007.53 1007.73 1008.01 1008.45 1008.73 1008.65 1008.53 1008.73 1008.65 1008.41 1008.57 1008.89 1008.93 1008.89 1008.93 1009.21 1009.25 1009.25 1009.37 1009.49 1009.81 1010.01 1010.21 1010.41 1010.41 1010.57 1010.73 1011.13 1011.65 1011.81 1011.97 1012.01 1012.13 1012.29 1012.45 1012.61
1003.89 1004.05 1003.97 1003.73 1003.69 1003.01 1002.85 1002.61 1003.13 1003.57 1003.81 1004.09 1004.05 1004.01 1004.21 1004.37 1004.57 1004.85 1004.97 1005.01 1005.09 1005.29 1005.49 1005.81 1006.21 1006.77 1007.09 1007.57 1007.73 1007.73 1007.93 1008.21 1008.49 1008.41 1007.93 1007.93 1008.17 1008.53 1008.81 1008.89 1008.93 1008.81 1008.93 1008.97 1009.17 1009.41 1009.45 1009.73 1009.93 1010.09 1010.25 1010.25 1010.53 1010.89 1011.29 1011.57 1011.89 1012.13 1012.21 1012.29 1012.41 1012.53 1012.61
1003.89 1003.81 1003.97 1003.97 1003.81 1003.37 1002.97 1002.97 1003.49 1004.01 1004.09 1004.25 1004.41 1004.37 1004.37 1004.45 1004.69 1004.69 1004.73 1004.89 1005.01 1005.25 1005.61 1006.05 1006.41 1006.85 1007.25 1007.49 1007.81 1008.13 1008.25 1008.49 1008.45 1008.41 1008.49 1008.73 1009.17 1008.93 1008.93 1008.97 1008.69 1008.57 1008.61 1008.69 1008.69 1008.85 1009.33 1009.53 1009.73 1009.77 1009.97 1010.21 1010.57 1011.01 1011.41 1011.65 1011.85 1012.05 1012.09 1012.29 1012.41 1012.49 1012.69
1003.97 1004.17 1004.05 1003.25 1003.45 1003.09 1003.09 1003.65 1004.05 1004.29 1004.33 1004.61 1004.53 1004.45 1004.49 1004.57 1004.61 1004.57 1004.61 1004.85 1005.01 1005.13 1005.53 1006.17 1006.53 1006.77 1007.13 1007.49 1007.73 1007.81 1007.81 1008.05 1008.49 1008.69 1008.93 1009.53 1009.93 1010.45 1010.57 1009.85 1009.25 1008.97 1008.93 1009.25 1009.17 1008.77 1008.69 1009.01 1009.37 1009.57 1009.77 1009.89 1010.29 1010.73 1011.17 1011.65 1011.77 1011.69 1011.93 1012.13 1012.37 1012.49 1012.57
1003.25 1003.69 1004.05 1003.89 1003.57 1003.29 1003.65 1003.89 1003.97 1004.21 1004.41 1004.57 1004.49 1004.41 1004.49 1004.57 1004.61 1004.69 1004.69 1004.73 1004.85 1004.93 1005.41 1005.93 1006.37 1006.73 1007.01 1007.05 1007.17 1007.25 1007.57 1008.05 1008.17 1008.61 1009.05 1009.21 1009.33 1009.29 1009.65 1010.73 1010.49 1010.05 1009.37 1009.25 1009.57 1009.45 1009.29 1009.17 1009.25 1009.41 1009.73 1010.05 1010.57 1010.77 1010.61 1010.73 1011.13 1011.45 1011.85 1012.29 1012.69 1012.97 1013.17
1003.89 1004.09 1003.89 1003.77 1003.77 1003.85 1003.85 1004.05 1004.01 1004.13 1004.37 1004.53 1004.45 1004.41 1004.41 1004.49 1004.49 1004.53 1004.57 1004.53 1004.57 1004.49 1004.85 1005.41 1005.97 1006.37 1006.65 1006.77 1007.05 1006.89 1006.69 1006.93 1007.25 1007.45 1008.01 1008.41 1008.29 1008.41 1008.81 1009.49 1010.41 1010.49 1010.49 1010.29 1010.05 1009.81 1009.69 1009.57 1009.57 1009.73 1009.93 1010.01 1010.45 1011.21 1011.29 1011.17 1011.37 1011.73 1012.17 1012.49 1012.81 1013.05 1013.25
1003.49 1003.53 1003.61 1003.61 1003.81 1003.93 1004.01 1004.05 1003.97 1003.97 1004.21 1004.37 1004.41 1004.45 1004.45 1004.45 1004.37 1004.17 1004.17 1004.05 1004.09 1004.29 1004.57 1005.05 1005.37 1005.93 1006.25 1006.33 1006.53 1006.57 1006.81 1007.13 1007.33 1007.69 1008.05 1008.17 1008.13 1008.37 1008.69 1008.93 1009.13 1009.85 1010.41 1010.45 1010.21 1010.13 1010.05 1010.01 1010.05 1010.17 1010.33 1010.37 1010.41 1010.69 1011.45 1011.65 1011.69 1011.89 1012.17 1012.45 1012.65 1012.77 1012.93
Wind_Speed
15 14 14 14 14 15 16 17 16 16 16 15 15 17 16 14 14 12 12 13 13 13 12 11 11 10 11 9 9 9 9 9 8 9 8 8 7 8 7 6 7 7 6 7 6 7 5 5 5 4 3 4 3 3 3 3 2 3 3 3 2 3 3
14 15 15 15 15 15 16 16 15 14 14 15 15 16 15 15 14 14 15 15 16 16 14 13 13 12 12 11 10 9 10 10 9 7 7 6 5 5 6 7 7 7 6 6 6 5 5 5 5 4 4 3 4 4 4 3 3 3 3 3 3 3 3
15 15 15 15 15 14 15 14 14 15 15 15 14 13 15 17 17 19 17 16 17 16 13 14 13 12 11 11 10 10 10 9 8 8 8 7 6 6 5 6 6 7 7 5 5 6 4 5 4 4 4 4 5 4 4 4 4 4 4 3 3 3 3
16 16 16 17 17 16 16 17 18 17 16 17 17 18 18 19 18 17 17 18 19 16 15 12 12 12 11 10 10 9 8 9 9 9 8 7 8 6 6 5 6 5 6 6 6 5 5 5 5 4 4 4 4 4 3 4 4 4 4 3 4 4 4
15 15 13 13 13 12 13 14 15 16 17 18 18 18 19 18 17 14 14 15 15 18 18 18 16 13 10 10 8 8 9 9 8 7 8 7 7 7 7 7 6 6 7 6 4 4 4 4 4 4 4 4 4 4 4 4 4 4 4 3 4 4 5
15 14 13 14 13 14 16 17 18 19 19 18 18 17 16 16 14 16 16 16 15 13 11 11 11 12 13 13 12 10 7 7 8 8 8 7 7 7 6 7 7 6 5 7 5 5 5 5 4 4 5 5 5 5 4 3 4 4 4 4 4 5 4
15 15 14 14 15 15 16 16 17 17 18 18 17 17 16 15 17 18 15 14 15 15 15 14 13 12 13 12 11 12 13 11 9 9 7 8 7 7 6 5 6 7 7 5 6 5 5 5 5 5 5 5 5 4 4 4 4 4 4 4 4 5 4
16 15 15 16 16 16 15 16 16 17 16 14 14 14 15 14 13 13 14 15 16 15 14 15 14 14 12 10 11 13 11 11 9 9 7 8 7 7 7 6 7 7 5 5 6 6 6 6 5 5 6 5 4 4 4 4 4 4 3 5 5 5 3
15 17 17 16 15 14 14 15 17 17 18 18 18 17 16 15 15 16 18 17 15 16 17 16 15 12 11 11 11 12 11 10 9 9 9 10 9 9 8 8 7 6 7 7 6 5 6 6 6 6 6 5 4 4 4 4 5 5 4 5 4 5 5
14 12 12 14 14 13 15 15 14 13 14 15 15 15 16 17 17 16 15 15 15 17 17 14 12 12 12 11 12 12 12 12 10 11 10 11 10 10 9 8 7 6 7 7 6 7 6 6 6 5 5 5 4 4 4 4 5 5 5 6 6 6 6
12 13 13 12 13 14 13 11 12 14 16 17 16 16 16 16 16 15 16 15 16 17 16 14 11 12 13 13 14 13 14 13 12 12 12 12 10 12 10 9 8 7 8 7 6 6 6 6 4 5 5 6 6 5 5 6 6 6 6 6 6 6 5
11 12 13 15 16 13 13 14 14 15 16 14 16 17 16 16 17 17 16 17 16 15 14 14 12 13 14 14 15 14 14 13 12 14 14 13 11 12 11 10 9 8 7 8 8 6 6 7 6 6 7 6 6 6 6 5 6 7 7 6 4 5 5
12 13 15 16 17 16 12 10 14 15 16 17 16 15 16 17 17 16 15 16 15 14 14 13 13 13 14 15 16 14 14 14 14 14 14 13 11 10 10 10 10 9 9 8 8 8 7 6 7 6 6 7 6 6 6 6 6 6 6 6 5 5 5
11 10 11 12 13 14 14 15 15 15 16 15 15 14 12 12 13 15 16 16 16 14 13 12 14 14 15 15 15 14 15 15 15 14 13 12 10 10 11 10 9 8 8 7 8 8 7 8 8 8 6 7 6 6 5 5 5 5 6 6 6 5 5
11 13 14 15 16 13 12 13 12 14 14 14 14 14 15 13 13 12 11 11 11 12 14 14 14 15 16 15 15 15 16 15 13 11 12 11 10 11 11 10 9 9 8 7 7 6 7 7 7 7 7 6 5 5 5 6 7 6 6 6 7 6 6
13 15 15 17 15 13 12 14 13 13 14 13 14 16 13 13 13 13 14 14 14 14 14 12 14 15 16 16 15 14 15 14 12 12 11 10 11 10 9 9 9 8 7 7 7 7 6 6 6 7 7 6 5 5 5 6 5 8 12 10 7 6 5
15 15 15 13 11 12 11 11 11 9 9 12 12 14 15 14 15 14 14 14 13 14 14 15 15 15 15 16 13 13 14 14 14 13 14 13 11 9 9 9 8 8 8 7 7 7 6 6 7 7 6 7 7 7 7 6 6 12 12 13 13 6 4
13 12 12 12 11 8 7 7 7 9 12 12 12 12 12 13 13 13 14 13 14 14 11 13 15 16 15 11 12 14 17 16 14 11 5 3 1 4 8 8 8 8 8 7 7 7 6 7 8 8 7 7 7 7 7 7 9 12 12 13 12 9 6
11 11 11 9 9 9 9 10 11 11 10 8 10 12 13 13 11 12 14 10 10 9 10 14 15 14 11 9 10 10 6 6 4 7 7 2 7 9 8 7 7 8 8 9 9 6 7 9 8 8 7 7 7 7 5 4 6 8 10 11 12 12 8
9 9 7 6 7 7 8 6 5 7 9 10 10 11 9 6 10 9 6 10 12 11 12 12 10 6 6 7 7 9 11 7 8 8 10 9 9 8 8 7 9 10 9 8 6 8 9 8 9 8 7 7 5 4 4 6 8 9 10 11 12 12 9
6 6 8 8 7 7 7 10 9 8 6 7 9 7 5 7 9 8 8 8 7 7 7 7 6 6 8 10 11 14 17 17 15 12 10 6 4 7 8 9 9 8 8 8 9 9 9 9 8 8 5 4 5 6 7 7 9 10 11 11 12 11 8
8 8 9 9 11 10 10 10 11 12 13 10 6 7 8 11 9 7 7 5 8 6 6 6 7 8 9 11 13 14 16 19 17 12 7 5 6 6 9 10 10 11 9 8 8 7 6 6 6 4 4 5 4 4 6 7 10 10 10 11 12 11 4
10 10 9 9 9 10 11 9 9 9 4 3 6 7 10 6 6 8 8 8 7 8 8 9 10 11 12 14 15 15 13 8 10 7 5 5 6 9 10 10 11 11 8 8 8 7 7 8 5 5 6 6 6 3 5 7 9 9 11 12 12 8 5
4 4 4 4 3 1 3 4 5 5 7 6 6 6 4 5 7 6 6 6 5 6 7 9 10 11 12 14 14 11 10 10 12 12 8 6 9 11 11 15 12 11 8 9 9 8 8 6 5 4 3 3 4 0 8 10 9 11 12 12 12 8 6
2 1 4 6 9 8 7 7 7 6 5 6 6 6 7 8 9 8 8 8 7 7 9 9 10 13 14 11 10 10 9 10 9 9 9 11 15 13 14 14 13 10 5 6 6 6 4 5 6 5 5 5 4 8 9 9 9 10 11 9 7 6 4
4 4 3 4 4 2 6 5 6 4 6 8 9 8 9 9 10 10 10 10 9 10 12 15 17 11 10 12 14 13 11 8 7 6 8 12 14 14 15 6 5 10 3 3 4 5 5 5 5 3 4 6 4 7 7 6 5 1 3 5 7 7 4
3 4 5 4 3 4 5 2 5 10 12 10 9 9 9 9 9 10 10 9 10 11 9 9 8 11 13 13 11 10 7 7 13 12 13 16 16 10 3 6 6 8 8 6 4 5 5 6 4 3 3 3 5 6 2 2 3 2 5 6 5 5 5
5 5 4 3 5 4 3 1 0 1 2 3 8 9 9 10 10 9 8 4 7 9 5 3 3 5 7 9 11 9 9 8 8 13 14 11 4 2 4 5 7 8 7 5 6 7 7 7 6 3 1 4 6 3 3 2 5 4 5 5 5 4 3
5 4 2 3 3 2 3 1 2 1 5 5 4 3 2 0 2 2 7 10 7 8 11 10 8 6 4 6 7 9 9 8 10 5 2 1 2 2 1 2 3 5 5 7 6 2 2 4 6 7 8 6 3 2 1 1 3 5 4 5 5 4 2
5 4 3 1 2 3 2 2 5 4 3 3 4 4 3 4 5 7 10 8 6 9 9 9 9 10 6 5 7 5 3 1 4 3 1 4 6 7 7 7 8 10 11 13 13 10 8 5 5 5 5 5 4 2 1 1 1 3 4 4 4 2 2
7 5 2 0 1 2 4 5 5 6 6 4 5 4 6 7 9 8 7 4 8 9 10 8 7 8 8 8 6 3 2 2 1 3 3 6 8 7 6 7 10 10 9 9 8 7 6 5 5 5 5 6 5 3 2 2 2 1 4 6 5 4 4
7 6 4 2 2 2 4 5 5 6 8 7 6 7 6 6 8 9 5 5 8 9 10 10 11 10 10 9 8 6 6 5 3 5 5 6 4 7 10 12 10 8 7 6 6 5 6 6 5 5 6 6 5 4 3 2 2 1 1 4 4 3 3
5 6 8 9 3 2 4 6 7 7 7 8 5 8 8 9 9 9 8 10 10 10 11 11 12 11 10 9 7 7 8 7 6 7 1 0 2 3 3 4 5 6 7 5 6 6 6 6 6 6 5 5 4 2 3 3 2 3 2 1 2 1 1
5 6 3 1 1 1 4 6 6 7 7 8 6 7 9 11 11 12 13 12 11 11 12 12 12 12 11 10 6 4 3 4 3 4 4 5 4 1 2 1 4 6 7 8 8 7 6 6 6 6 6 5 4 4 3 4 4 4 5 4 3 2 1
3 4 6 3 3 3 5 6 7 6 8 7 6 9 11 11 11 12 13 12 12 14 14 12 11 10 8 7 8 7 5 5 4 3 3 2 3 4 5 4 4 1 4 5 3 0 7 8 6 5 5 6 6 6 4 4 7 6 5 3 4 3 3
6 6 5 2 1 5 5 6 10 10 10 8 8 11 12 12 10 9 9 10 10 12 14 12 11 10 9 9 9 10 9 6 6 7 8 8 9 8 5 6 6 5 2 3 7 9 8 4 4 5 5 5 1 2 5 5 3 7 11 9 7 5 4
7 6 1 0 3 4 7 8 8 10 10 10 10 11 12 11 11 10 10 10 9 12 13 12 11 10 9 9 7 8 8 9 8 9 9 8 6 6 8 5 4 9 10 8 7 7 8 8 9 9 6 5 4 3 6 8 11 12 10 8 6 5 4
4 2 2 3 4 6 8 9 10 12 13 10 11 11 11 11 10 10 10 11 11 9 10 9 10 10 10 10 9 9 8 7 6 6 6 5 5 6 7 6 6 4 7 9 8 9 9 9 9 9 9 7 8 7 4 7 9 10 8 6 5 4 3
Wind_Direction
188 188 192 192 192 193 193 195 193 190 191 191 191 192 191 190 192 190 193 194 198 200 193 185 186 182 184 182 173 172 171 168 170 172 177 181 177 169 166 171 163 170 166 164 179 168 180 172 181 198 192 181 178 205 225 225 227 236 241 242 243 249 243
192 193 192 193 195 196 196 194 192 192 194 196 196 194 192 192 191 192 196 195 199 200 192 188 185 187 184 179 173 172 171 175 173 171 170 173 169 163 166 168 165 169 172 175 169 186 168 189 180 190 184 183 201 210 218 223 222 237 242 252 250 268 267
195 194 193 192 196 196 193 191 193 195 195 197 196 194 195 195 194 196 194 194 199 200 193 191 188 186 186 176 171 180 175 167 167 166 167 168 167 170 178 168 170 164 183 177 174 178 188 185 193 187 174 187 211 221 224 224 232 236 246 251 245 251 255
194 195 195 194 196 195 191 190 192 194 197 196 195 197 199 200 199 198 196 197 197 196 192 189 185 188 185 178 177 175 175 172 168 167 166 162 167 171 167 179 171 169 164 181 187 177 189 184 188 190 185 187 208 219 224 225 231 229 238 233 239 235 234
198 197 192 193 195 193 194 194 195 197 199 199 200 201 201 201 198 197 201 202 199 197 194 189 190 182 172 173 176 175 175 172 168 166 163 165 166 164 171 177 180 175 180 181 184 183 185 190 192 188 190 186 203 212 220 219 230 231 237 219 230 231 233
194 192 193 193 193 195 196 195 196 196 199 198 201 201 205 202 200 202 202 199 200 202 199 193 188 176 179 183 176 167 161 173 169 166 163 164 160 171 180 184 182 186 176 187 183 191 190 191 199 196 189 191 193 203 209 216 232 227 237 231 231 240 241
192 192 193 194 195 197 196 196 199 201 203 204 201 202 200 198 200 204 199 199 198 195 195 194 189 182 189 179 169 164 171 172 171 171 163 158 166 171 188 193 193 190 195 175 185 187 190 198 202 198 196 187 189 192 211 221 242 240 235 231 243 247 243
190 192 197 195 197 198 195 197 198 203 204 203 204 203 203 205 205 204 201 201 198 197 197 194 189 189 184 180 176 177 164 174 168 162 160 161 166 176 189 199 200 199 191 188 201 183 200 201 202 198 191 186 192 201 214 224 235 248 219 229 236 257 249
194 194 193 196 200 199 192 196 200 200 197 200 200 201 201 201 202 203 203 201 197 196 200 196 190 183 176 178 180 177 171 164 166 162 167 169 176 185 189 198 203 199 194 204 201 197 196 201 201 199 193 191 200 204 212 221 232 237 225 235 237 246 256
196 198 204 203 201 195 196 199 198 199 202 203 204 203 201 203 205 205 203 200 198 201 201 194 185 180 178 177 179 173 172 171 164 167 172 180 186 182 195 194 201 199 200 205 196 191 205 204 204 202 197 200 207 210 225 235 238 242 227 230 229 231 240
194 196 196 201 206 204 199 193 193 200 203 204 204 204 203 203 204 203 202 198 199 203 198 191 181 177 180 180 178 177 173 174 170 172 181 191 187 187 194 193 194 193 200 202 200 199 197 211 210 210 205 208 211 218 224 233 235 236 240 235 226 224 230
194 191 197 202 208 206 199 197 198 202 204 204 207 206 203 202 203 204 201 201 200 198 191 190 182 180 179 182 181 181 177 171 173 179 186 192 190 190 191 191 189 191 199 198 203 202 200 202 207 208 216 216 214 212 223 230 228 228 237 244 238 230 231
190 192 197 201 207 209 202 198 202 204 204 208 207 204 205 204 205 202 201 202 198 196 192 188 183 182 183 186 186 180 176 173 181 185 188 191 187 187 191 190 190 192 197 197 200 198 199 207 207 216 215 221 211 213 218 228 234 236 238 239 235 226 224
195 197 203 208 213 210 203 202 203 204 208 210 210 211 213 212 208 204 201 199 197 192 189 187 186 185 188 188 187 181 178 181 184 186 187 191 182 186 192 190 190 195 200 196 201 201 200 203 207 215 213 217 210 217 218 230 238 236 234 235 231 224 225
191 199 204 209 215 209 207 207 207 207 207 209 209 208 209 207 208 208 209 209 202 197 196 190 187 189 191 190 187 183 182 182 183 181 189 186 183 189 192 188 190 196 200 203 206 207 208 206 203 207 215 221 215 224 222 220 229 227 223 224 233 226 227
195 201 204 209 210 208 208 210 209 209 207 209 208 210 206 207 207 206 205 204 199 198 199 183 195 195 194 192 189 183 182 180 177 183 183 182 189 193 192 187 189 195 204 210 209 210 209 205 204 208 209 211 218 221 220 224 228 228 221 217 219 219 223
199 204 207 207 207 209 209 210 213 212 211 215 212 210 209 207 207 205 207 207 203 203 197 191 197 199 197 196 183 177 178 175 182 179 185 186 186 187 190 185 186 197 207 210 210 210 208 202 206 211 210 207 212 218 220 226 229 230 226 226 223 208 200
197 202 201 202 202 197 202 208 209 209 213 214 213 213 212 213 210 207 209 205 207 207 196 201 203 201 200 185 175 177 182 182 177 177 153 68 194 209 192 184 184 198 205 209 210 212 202 206 212 211 210 212 217 225 225 228 233 230 230 226 218 207 201
196 196 197 189 185 192 195 200 206 210 215 215 214 213 216 212 211 212 211 203 216 208 204 209 207 203 190 175 179 178 139 108 106 59 76 218 233 228 219 192 191 200 204 210 208 194 198 213 212 216 215 214 217 226 236 253 268 260 238 218 208 206 202
193 189 182 182 184 187 197 194 197 208 211 215 218 218 220 212 216 221 192 211 218 202 211 211 212 194 166 145 136 119 127 112 109 148 176 208 230 232 223 202 202 206 208 208 198 198 208 213 215 216 214 218 212 208 211 224 228 220 219 226 219 211 201
180 167 174 177 190 201 198 196 201 205 208 218 216 204 183 198 208 194 192 210 215 215 210 197 174 154 154 152 148 160 167 163 160 169 183 196 235 244 234 221 215 213 209 206 206 204 207 211 214 221 208 185 186 206 229 240 233 216 214 218 226 229 209
180 175 175 186 182 197 193 196 198 197 207 212 189 191 193 209 197 189 196 177 199 190 182 169 159 154 149 154 163 169 171 171 174 156 154 162 218 242 247 235 224 218 213 210 216 214 209 217 216 205 175 191 196 214 244 250 242 226 221 218 226 230 215
171 185 179 184 182 190 194 189 193 204 190 173 192 192 210 196 160 175 177 184 184 172 166 151 159 166 166 168 171 173 170 137 107 113 164 167 222 235 237 245 237 229 212 211 213 206 207 215 192 167 170 188 198 218 277 273 264 238 224 223 223 217 208
157 165 166 169 188 135 153 174 171 167 171 168 181 194 160 153 172 174 182 186 175 158 149 156 165 172 171 175 173 146 124 136 144 155 164 174 230 235 229 231 230 227 206 206 208 205 209 191 167 153 150 116 81 153 247 259 257 231 224 220 219 205 203
103 171 213 188 178 175 177 180 173 165 148 149 172 181 168 162 157 163 181 187 169 144 144 165 168 178 180 158 122 117 142 135 141 159 164 189 220 230 232 234 229 227 194 211 201 196 168 154 138 150 165 155 182 228 234 251 258 229 215 214 208 205 211
59 43 27 14 12 110 137 129 106 112 149 176 191 177 166 162 163 176 187 191 167 160 171 180 186 167 114 125 143 147 145 135 128 163 185 221 229 227 231 246 31 29 336 243 183 156 158 143 122 97 48 35 311 256 247 244 263 284 179 196 199 209 193
102 110 91 63 52 58 98 128 152 169 186 192 181 175 168 162 164 185 193 183 178 190 178 170 153 143 149 142 130 125 125 146 163 179 199 219 229 231 199 118 168 200 202 196 177 149 122 98 100 124 146 162 264 260 212 230 215 107 141 150 161 177 174
81 76 76 94 79 62 80 106 359 285 212 190 183 178 169 164 175 189 181 134 60 58 99 90 72 88 99 121 123 125 137 158 185 202 214 228 251 227 195 174 179 197 181 156 155 149 149 152 142 136 191 252 231 192 180 172 141 149 125 134 143 151 163
57 76 88 88 80 111 128 192 249 303 6 14 18 21 15 29 164 80 75 82 91 90 99 104 93 73 82 103 131 160 173 177 216 239 245 250 202 174 97 47 69 58 79 81 69 62 220 197 179 186 202 186 159 174 162 97 122 143 145 137 131 142 146
5 19 19 360 114 141 121 101 76 90 91 61 31 38 54 92 94 84 79 80 104 107 99 99 112 115 119 150 166 165 128 302 353 339 215 142 120 121 128 137 148 161 162 170 172 181 183 183 177 166 157 163 166 156 72 89 89 133 145 145 141 141 170
344 334 319 9 69 76 73 94 105 98 89 95 83 66 77 86 95 96 104 137 118 117 118 112 110 123 147 162 162 169 137 194 173 239 202 147 142 143 187 191 176 181 186 170 174 172 161 167 163 158 163 159 174 171 180 160 129 131 149 150 154 175 190
349 342 334 332 83 80 90 90 95 99 95 82 92 100 100 105 108 103 119 131 124 115 112 112 108 112 123 132 134 130 133 166 203 243 206 207 186 177 189 192 184 166 166 166 163 166 159 165 154 155 160 169 179 190 174 146 153 144 157 155 152 145 146
333 334 341 347 323 137 126 121 112 111 107 98 101 98 89 86 85 97 104 102 108 111 111 109 104 102 106 108 125 152 170 159 183 239 286 19 181 162 170 154 163 160 172 172 163 169 164 151 159 157 162 170 181 158 150 168 167 189 214 112 108 131 73
338 344 325 117 19 62 85 87 100 109 112 113 105 98 100 101 106 112 110 108 109 107 103 104 110 112 121 137 138 100 104 131 121 69 42 29 359 79 127 208 205 183 173 174 169 154 154 159 160 169 171 179 160 142 152 201 200 207 200 190 176 135 61
337 313 286 2 34 58 91 107 115 126 123 118 118 108 107 112 117 119 117 118 121 119 113 115 122 133 131 125 127 124 110 89 82 111 91 92 60 16 2 342 345 60 82 18 4 98 157 169 174 175 178 161 162 158 188 207 218 221 174 155 136 138 132
333 321 294 304 190 127 133 138 141 139 131 131 129 124 122 126 127 124 124 126 124 120 117 122 122 124 136 141 138 141 134 157 180 175 179 176 176 178 135 65 57 17 45 83 33 44 34 80 167 176 154 132 123 169 180 203 207 142 134 116 111 110 89
268 260 315 194 127 133 137 145 145 139 136 140 142 134 134 133 136 135 141 138 139 131 131 135 132 141 160 167 178 185 169 173 187 178 182 191 178 136 134 137 60 52 49 53 56 51 58 79 96 103 116 134 141 82 57 94 102 104 115 124 137 140 148
249 234 167 181 181 169 153 150 154 152 149 151 149 144 142 141 149 150 155 154 152 142 134 142 146 163 181 183 184 181 178 181 180 165 163 163 145 139 146 143 130 76 45 51 44 46 55 63 82 94 99 111 125 127 82 79 90 99 101 107 113 107 126